Weather in Bushuyevo

Russia / Tyumen Oblast     56°44′00″N   67°21′09″E
temp.,
°C
wind,
m/s
gust,
m/s
humid.,
%
clouds,
%
prec.,
mm/h
press.,
hPa
HPBL,
m
28 september, tue
tue2823:00+5e61264100 0.0 1025971
02:00+4ene51168100 0.0 1025656
05:00+2ene512775 0.0 1025416
08:00+4ene5965100 0.0 10241037
11:00+7ene794998 0.0 10231629
14:00+7ene71047100 0.0 10221776
17:00+7ne5959100 0.0 10211306
20:00+4nne41170100 0.1 1021401
29 september, wed
wed2923:00+4nne41075100 0.2 1021312
02:00+2nne489341 0.0 1021188
05:00+1nne499415 0.0 1021230
08:00+1nne410908 0.0 1022329
11:00+6nne576430 0.0 1021938
14:00+7nne6753100 0.0 10211619
17:00+6nne4763100 0.0 1022937
20:00+5nne4874100 0.1 1023676
30 september, thu
thu3023:00+4n378096 0.1 1023499
02:00+1n369471 0.0 1023168
05:00+2n3694100 0.0 1023461
08:00+2n3589100 0.0 1022520
11:00+4nnw3479100 0.1 1022642
14:00+7nw4553100 0.0 10201448
17:00+7nw35505 0.0 1020782
20:00+2wnw33645 0.0 101932
1 october, fri
fri123:00+1w3668100 0.0 101897
02:00+2w3870100 0.0 1017187
05:00+1wnw4985100 0.1 1016399
08:00+3nnw61097100 0.8 1016861
11:00+4n7106159 0.9 10191224
14:00+2nnw6965100 0.0 10211312
17:00+3nnw5966100 0.1 10231178
20:00+1nnw5107974 0.1 1024440
2 october, sat
sat223:00+2nnw487796 0.1 1025720
02:000wnw3587100 0.0 1026116
05:000w3779100 0.0 1026168
08:00+1w4970100 0.0 1026385
11:00+5w46575 0.0 1025814
14:00+7wnw564789 0.0 10251451
17:00+6wnw3658100 0.0 10251086
20:00+3wnw227282 0.1 102617